Meteo Giornale » Osservazioni meteo Italia » Genova-Sestri

ore: 15:50 - Osservazioni Meteo Genova-Sestri
Lat. 44° 25' N Lon. 8° 51' E Alt. 2 metri s.l.m.

nuvoloso Europe/Rome

30 °C

Nuvoloso

Temp. 24 Ore

24 °C

31 °C

Nord-Ovest

20.3 Km/h

Dew point 19 °C

Umidità 51 %

Visibilità  10 Km

Il sole sorge alle ore 06:35

Il sole tramonta alle ore 20:18

Data e Ora Cielo e Fenomeni T °C DP °C Um. % Pres. hPa Vis. km Vento km/h
Oggi h: 15:50 nuvoloso Nuvoloso 30 19 51 1019 10 NO 20.3
Oggi h: 15:20 nuvoloso Nuvoloso 30 18 48 1019 10 O 9.3
Oggi h: 14:50 nuvoloso Nuvoloso 30 18 48 1019 10 O 14.8
Oggi h: 14:20 poco_nuvoloso Poco Nuvoloso 30 19 51 1019 10 S/SO 9.3
Oggi h: 13:50 nuvoloso Nuvoloso 29 19 54 1019 10 N 5.5
Oggi h: 13:20 molto_nuvoloso Molto Nuvoloso 28 18 54 1020 10 N 3.7
Oggi h: 12:50 molto_nuvoloso Molto Nuvoloso 26 18 61 1020 10 NE 14.8
Oggi h: 12:20 molto_nuvoloso Molto Nuvoloso 27 18 57 1020 10 NE 14.8
Oggi h: 11:50 molto_nuvoloso Molto Nuvoloso 26 18 61 1020 10 NE 20.3
Oggi h: 11:20 molto_nuvoloso Molto Nuvoloso 27 18 57 1020 10 NE 16.7
Oggi h: 10:50 molto_nuvoloso Molto Nuvoloso 26 18 61 1020 10 NE 16.7
Oggi h: 10:20 molto_nuvoloso Molto Nuvoloso 26 18 61 1019 10 NE 16.7
Oggi h: 09:50 nuvoloso Nuvoloso 26 18 61 1019 10 NE 16.7
Oggi h: 09:20 nuvoloso Nuvoloso 25 18 65 1019 10 NE 20.3
Oggi h: 08:50 nuvoloso Nuvoloso 25 18 65 1019 10 NE 18.5
Oggi h: 08:20 nuvoloso Nuvoloso 24 18 69 1019 10 NE 22.2
Oggi h: 07:50 molto_nuvoloso Molto Nuvoloso 24 17 64 1018 10 NE 20.3
Oggi h: 07:20 nuvoloso Nuvoloso 24 17 64 1018 10 NE 22.2
Oggi h: 06:50 sereno Sereno 24 18 69 1018 10 NE 22.2
Oggi h: 06:20 sereno Sereno 24 18 69 1018 10 NE 18.5
Oggi h: 05:50 sereno Sereno 24 18 69 1018 10 NE 18.5
Oggi h: 05:20 sereno Sereno 24 18 69 1018 10 E/NE 14.8
Oggi h: 04:50 sereno Sereno 24 18 69 1018 10 NE 22.2
Oggi h: 04:20 sereno Sereno 25 18 65 1018 10 NE 11.1
Oggi h: 03:50 sereno Sereno 25 18 65 1018 10 NE 16.7
Oggi h: 03:20 sereno Sereno 25 18 65 1018 10 N/NE 14.8
Oggi h: 02:50 sereno Sereno 25 18 65 1018 10 NE 18.5
Oggi h: 02:20 sereno Sereno 25 18 65 1018 10 N/NE 16.7
Oggi h: 01:50 sereno Sereno 25 18 65 1019 10 NE 14.8
Oggi h: 01:20 sereno Sereno 25 18 65 1019 10 NE 16.7
Oggi h: 00:50 sereno Sereno 25 18 65 1019 10 NE 13
Oggi h: 00:20 sereno Sereno 26 18 61 1019 10 NE 11.1
Ieri h: 23:50 sereno Sereno 26 18 61 1019 10 NE 14.8
Ieri h: 23:20 sereno Sereno 26 18 61 1018 10 NE 13
Ieri h: 22:50 sereno Sereno 26 18 61 1018 10 NE 9.3
Ieri h: 22:20 sereno Sereno 27 18 57 1018 10 NE 7.4
Ieri h: 21:50 sereno Sereno 27 18 57 1019 10 NE 9.3
Ieri h: 21:20 sereno Sereno 27 18 57 1018 10 NE 9.3
Ieri h: 20:50 sereno Sereno 28 18 54 1018 10 NE 7.4
Ieri h: 20:20 sereno Sereno 28 18 54 1018 10 N/NE 14.8
Ieri h: 19:50 sereno Sereno 29 18 51 1018 10 N/NE 14.8
Ieri h: 19:20 sereno Sereno 29 18 51 1017 10 N 16.7
Ieri h: 18:50 sereno Sereno 29 18 51 1017 10 N 18.5
Ieri h: 18:20 sereno Sereno 30 18 48 1017 10 N 18.5
Ieri h: 17:50 sereno Sereno 30 18 48 1017 10 N 18.5
Ieri h: 17:20 sereno Sereno 30 18 48 1017 10 N 18.5
Ieri h: 16:50 sereno Sereno 31 18 45 1018 10 N 13